This is the latest recevied weather packets stored in our database for station/object VK2KGV-15. If no packets are shown the sender has not sent any weather packets the latest 1 day(s).
| Time | Temp. | Humidity | Pressure | Rain* | Wind** | Luminosity | Snow |
|---|---|---|---|---|---|---|---|
| 1778021386 | 20.56° C | 80% | 1018.9 hPa | 0.25 mm | 0 m/s | - | - |
| 1778020783 | 20° C | 83% | 1019 hPa | 0 mm | 0.45 m/s, 127° | - | - |
| 1778018370 | 18.33° C | 93% | 1019.2 hPa | 0 mm | 0 m/s | - | - |
| 1778017164 | 16.67° C | 96% | 1019.1 hPa | 0 mm | 0 m/s | - | - |
| 1778015958 | 16.11° C | 97% | 1019 hPa | 0 mm | 0 m/s | - | - |
| 1778014752 | 15.56° C | 97% | 1019.1 hPa | 1.52 mm | 0 m/s | - | - |
| 1778012339 | 15° C | 96% | 1018.7 hPa | 1.52 mm | 0 m/s | - | - |
| 1778011133 | 15° C | 96% | 1018.6 hPa | 1.52 mm | 0 m/s | - | - |
| 1778009927 | 15° C | 96% | 1018.4 hPa | 1.52 mm | 0 m/s | - | - |
| 1778008118 | 15° C | 96% | 1018.3 hPa | 1.52 mm | 0 m/s | - | - |
| 1778007514 | 15° C | 96% | 1018.3 hPa | 1.52 mm | 0 m/s | - | - |
| 1778006911 | 15° C | 95% | 1018.2 hPa | 1.52 mm | 0 m/s | - | - |
| 1778006308 | 15° C | 95% | 1018 hPa | 1.52 mm | 0 m/s | - | - |
| 1778005102 | 15.56° C | 95% | 1017.9 hPa | 1.52 mm | 0 m/s | - | - |
| 1778002690 | 15.56° C | 94% | 1018.1 hPa | 1.52 mm | 0 m/s | - | - |
| 1778000277 | 16.11° C | 95% | 1018.2 hPa | 1.52 mm | 0 m/s | - | - |
| 1777999071 | 16.11° C | 95% | 1018.3 hPa | 1.52 mm | 0 m/s | - | - |
| 1777997262 | 16.11° C | 95% | 1018.5 hPa | 1.52 mm | 0 m/s | - | - |
| 1777995452 | 16.11° C | 95% | 1018.6 hPa | 1.52 mm | 0 m/s | - | - |
| 1777994849 | 16.11° C | 95% | 1018.8 hPa | 1.52 mm | 0 m/s | - | - |
| 1777993046 | 16.67° C | 95% | 1018.9 hPa | 1.52 mm | 0 m/s | - | - |
| 1777991833 | 16.11° C | 95% | 1019.1 hPa | 1.52 mm | 0 m/s | - | - |
| 1777989421 | 16.11° C | 94% | 1019.3 hPa | 1.52 mm | 0 m/s | - | - |
| 1777987009 | 16.11° C | 94% | 1019.2 hPa | 1.52 mm | 0 m/s | - | - |
| 1777984596 | 16.11° C | 93% | 1019.3 hPa | 1.52 mm | 0 m/s | - | - |
* Rain since midnight (hover to see other rain measurements)
** Current wind speed in m/s (hover to see current wind gust speed)